Time,TemperatureF,DewpointF,PressureIn,WindDirection,WindDirectionDegrees,WindSpeedMPH,WindSpeedGustMPH,Humidity,HourlyPrecipIn,Conditions,Clouds,dailyrainin,SolarRadiationWatts/m^2,SoftwareType,DateUTC
2013-03-06 00:11:00,31.0,30.0,-100.00,NNW,330,5.0,8.0,95,0.00,,,0.00,0.000000,,2013-03-06 08:11:00,
2013-03-06 00:21:00,31.0,30.0,-100.00,NNW,330,5.0,8.0,95,0.00,,,0.00,0.000000,,2013-03-06 08:21:00,
2013-03-06 00:31:00,31.0,30.0,-100.00,NNW,330,5.0,8.0,95,0.00,,,0.00,0.000000,,2013-03-06 08:31:00,
2013-03-06 00:42:00,31.0,30.0,-100.00,NNW,330,5.0,8.0,95,0.00,,,0.00,0.000000,,2013-03-06 08:42:00,
2013-03-06 01:12:00,31.0,29.0,-100.00,NNW,333,5.0,7.0,94,0.00,,,0.00,0.000000,,2013-03-06 09:12:00,
2013-03-06 01:21:00,31.0,29.0,-100.00,NNW,333,5.0,7.0,94,0.00,,,0.00,0.000000,,2013-03-06 09:21:00,
2013-03-06 01:31:00,31.0,29.0,-100.00,NNW,333,5.0,7.0,94,0.00,,,0.00,0.000000,,2013-03-06 09:31:00,
2013-03-06 01:41:00,31.0,29.0,-100.00,NNW,333,5.0,7.0,94,0.00,,,0.00,0.000000,,2013-03-06 09:41:00,
2013-03-06 02:11:00,32.0,30.0,-100.00,North,6,7.0,9.0,94,0.00,,,0.00,0.000000,,2013-03-06 10:11:00,
2013-03-06 02:21:00,32.0,30.0,-100.00,North,6,7.0,9.0,94,0.00,,,0.00,0.000000,,2013-03-06 10:21:00,
2013-03-06 02:31:00,32.0,30.0,-100.00,North,6,7.0,9.0,94,0.00,,,0.00,0.000000,,2013-03-06 10:31:00,
2013-03-06 02:41:00,32.0,30.0,-100.00,North,6,7.0,9.0,94,0.00,,,0.00,0.000000,,2013-03-06 10:41:00,
2013-03-06 03:11:00,32.0,30.0,-100.00,NNE,16,10.0,14.0,94,0.00,,,0.00,0.000000,,2013-03-06 11:11:00,
2013-03-06 03:22:00,32.0,30.0,-100.00,NNE,16,10.0,14.0,94,0.00,,,0.00,0.000000,,2013-03-06 11:22:00,
2013-03-06 03:32:00,32.0,30.0,-100.00,NNE,16,10.0,14.0,94,0.00,,,0.00,0.000000,,2013-03-06 11:32:00,
2013-03-06 03:42:00,32.0,30.0,-100.00,NNE,16,10.0,14.0,94,0.00,,,0.00,0.000000,,2013-03-06 11:42:00,
2013-03-06 04:11:00,32.0,30.0,-100.00,NNE,12,9.0,15.0,93,0.00,,,0.00,0.000000,,2013-03-06 12:11:00,
2013-03-06 04:21:00,32.0,30.0,-100.00,NNE,12,9.0,15.0,93,0.00,,,0.00,0.000000,,2013-03-06 12:21:00,
2013-03-06 04:32:00,32.0,30.0,-100.00,NNE,12,9.0,15.0,93,0.00,,,0.00,0.000000,,2013-03-06 12:32:00,
2013-03-06 04:42:00,32.0,30.0,-100.00,NNE,12,9.0,15.0,93,0.00,,,0.00,0.000000,,2013-03-06 12:42:00,
2013-03-06 05:11:00,32.0,31.0,-100.00,NNE,13,11.0,15.0,95,0.00,,,0.00,0.000000,,2013-03-06 13:11:00,
2013-03-06 05:21:00,32.0,31.0,-100.00,NNE,13,11.0,15.0,95,0.00,,,0.00,0.000000,,2013-03-06 13:21:00,
2013-03-06 05:32:00,32.0,31.0,-100.00,NNE,13,11.0,15.0,95,0.00,,,0.00,0.000000,,2013-03-06 13:32:00,
2013-03-06 05:42:00,32.0,31.0,-100.00,NNE,13,11.0,15.0,95,0.00,,,0.00,0.000000,,2013-03-06 13:42:00,
2013-03-06 06:11:00,32.0,31.0,-100.00,North,11,10.0,16.0,95,0.00,,,0.00,0.000000,,2013-03-06 14:11:00,
2013-03-06 06:21:00,32.0,31.0,-100.00,North,11,10.0,16.0,95,0.00,,,0.00,0.000000,,2013-03-06 14:21:00,
2013-03-06 06:32:00,32.0,31.0,-100.00,North,11,10.0,16.0,95,0.00,,,0.00,0.000000,,2013-03-06 14:32:00,
2013-03-06 06:41:00,32.0,31.0,-100.00,North,11,10.0,16.0,95,0.00,,,0.00,0.000000,,2013-03-06 14:41:00,
2013-03-06 07:11:00,32.0,31.0,-100.00,NNE,13,7.0,14.0,95,0.00,,,0.00,0.000000,,2013-03-06 15:11:00,
2013-03-06 07:21:00,32.0,31.0,-100.00,NNE,13,7.0,14.0,95,0.00,,,0.00,0.000000,,2013-03-06 15:21:00,
2013-03-06 07:32:00,32.0,31.0,-100.00,NNE,13,7.0,14.0,95,0.00,,,0.00,0.000000,,2013-03-06 15:32:00,
2013-03-06 07:41:00,32.0,31.0,-100.00,NNE,13,7.0,14.0,95,0.00,,,0.00,0.000000,,2013-03-06 15:41:00,
2013-03-06 08:11:00,33.0,32.0,-100.00,NNE,17,9.0,14.0,95,0.00,,,0.00,1.000000,,2013-03-06 16:11:00,
2013-03-06 08:21:00,33.0,32.0,-100.00,NNE,17,9.0,14.0,95,0.00,,,0.00,1.000000,,2013-03-06 16:21:00,
2013-03-06 08:32:00,33.0,32.0,-100.00,NNE,17,9.0,14.0,95,0.00,,,0.00,1.000000,,2013-03-06 16:32:00,
2013-03-06 08:41:00,33.0,32.0,-100.00,NNE,17,9.0,14.0,95,0.00,,,0.00,1.000000,,2013-03-06 16:41:00,
2013-03-06 09:11:00,33.0,32.0,-100.00,NNE,16,11.0,15.0,95,0.00,,,-99.99,33.000000,,2013-03-06 17:11:00,
2013-03-06 09:21:00,33.0,32.0,-100.00,NNE,16,11.0,15.0,95,0.00,,,-99.99,33.000000,,2013-03-06 17:21:00,
2013-03-06 09:32:00,33.0,32.0,-100.00,NNE,16,11.0,15.0,95,0.00,,,-99.99,33.000000,,2013-03-06 17:32:00,
2013-03-06 09:41:00,33.0,32.0,-100.00,NNE,16,11.0,15.0,95,0.00,,,-99.99,33.000000,,2013-03-06 17:41:00,
2013-03-06 10:28:00,32.0,31.0,-100.00,NNE,22,10.0,15.0,96,0.00,,,0.00,96.000000,,2013-03-06 18:28:00,
2013-03-06 10:42:00,32.0,31.0,-100.00,NNE,22,10.0,15.0,96,0.00,,,0.00,96.000000,,2013-03-06 18:42:00,
2013-03-06 11:02:00,34.0,33.0,-100.00,NNE,20,9.0,15.0,96,0.07,,,0.07,82.000000,,2013-03-06 19:02:00,
2013-03-06 11:11:00,34.0,33.0,-100.00,NNE,20,9.0,15.0,96,0.07,,,0.07,82.000000,,2013-03-06 19:11:00,
2013-03-06 11:21:00,34.0,33.0,-100.00,NNE,20,9.0,15.0,96,0.07,,,0.07,82.000000,,2013-03-06 19:21:00,
2013-03-06 11:32:00,34.0,33.0,-100.00,NNE,20,9.0,15.0,96,0.07,,,0.07,82.000000,,2013-03-06 19:32:00,
2013-03-06 11:42:00,34.0,33.0,-100.00,NNE,20,9.0,15.0,96,0.07,,,0.07,82.000000,,2013-03-06 19:42:00,
2013-03-06 12:11:00,34.0,33.0,-100.00,NNE,19,8.0,14.0,96,0.02,,,0.09,139.000000,,2013-03-06 20:11:00,
2013-03-06 12:22:00,34.0,33.0,-100.00,NNE,19,8.0,14.0,96,0.02,,,0.09,139.000000,,2013-03-06 20:22:00,
2013-03-06 12:32:00,34.0,33.0,-100.00,NNE,19,8.0,14.0,96,0.02,,,0.09,139.000000,,2013-03-06 20:32:00,
2013-03-06 12:42:00,34.0,33.0,-100.00,NNE,19,8.0,14.0,96,0.02,,,0.09,139.000000,,2013-03-06 20:42:00,
2013-03-06 13:11:00,34.0,33.0,-100.00,North,8,10.0,13.0,96,0.03,,,-99.99,129.000000,,2013-03-06 21:11:00,
2013-03-06 13:22:00,34.0,33.0,-100.00,North,8,10.0,13.0,96,0.03,,,-99.99,129.000000,,2013-03-06 21:22:00,
2013-03-06 13:32:00,34.0,33.0,-100.00,North,8,10.0,13.0,96,0.03,,,-99.99,129.000000,,2013-03-06 21:32:00,
2013-03-06 13:42:00,34.0,33.0,-100.00,North,8,10.0,13.0,96,0.03,,,-99.99,129.000000,,2013-03-06 21:42:00,
2013-03-06 14:11:00,33.0,32.0,-100.00,NNE,20,9.0,13.0,96,0.01,,,-99.99,127.000000,,2013-03-06 22:11:00,
2013-03-06 14:21:00,33.0,32.0,-100.00,NNE,20,9.0,13.0,96,0.01,,,-99.99,127.000000,,2013-03-06 22:21:00,
2013-03-06 14:32:00,33.0,32.0,-100.00,NNE,20,9.0,13.0,96,0.01,,,-99.99,127.000000,,2013-03-06 22:32:00,
2013-03-06 14:41:00,33.0,32.0,-100.00,NNE,20,9.0,13.0,96,0.01,,,-99.99,127.000000,,2013-03-06 22:41:00,
2013-03-06 15:11:00,33.0,32.0,-100.00,SW,231,6.0,13.0,96,0.00,,,0.13,100.000000,,2013-03-06 23:11:00,
2013-03-06 15:21:00,33.0,32.0,-100.00,SW,231,6.0,13.0,96,0.00,,,0.13,100.000000,,2013-03-06 23:21:00,
2013-03-06 15:31:00,33.0,32.0,-100.00,SW,231,6.0,13.0,96,0.00,,,0.13,100.000000,,2013-03-06 23:31:00,
2013-03-06 15:41:00,33.0,32.0,-100.00,SW,231,6.0,13.0,96,0.00,,,0.13,100.000000,,2013-03-06 23:41:00,
2013-03-06 16:11:00,34.0,33.0,-100.00,North,8,7.0,11.0,96,0.00,,,0.13,127.000000,,2013-03-07 00:11:00,
2013-03-06 16:21:00,34.0,33.0,-100.00,North,8,7.0,11.0,96,0.00,,,0.13,127.000000,,2013-03-07 00:21:00,
2013-03-06 16:32:00,34.0,33.0,-100.00,North,8,7.0,11.0,96,0.00,,,0.13,127.000000,,2013-03-07 00:32:00,
2013-03-06 16:41:00,34.0,33.0,-100.00,North,8,7.0,11.0,96,0.00,,,0.13,127.000000,,2013-03-07 00:41:00,
2013-03-06 17:11:00,33.0,32.0,-100.00,North,352,4.0,9.0,95,0.00,,,0.13,8.000000,,2013-03-07 01:11:00,
2013-03-06 17:21:00,33.0,32.0,-100.00,North,352,4.0,9.0,95,0.00,,,0.13,8.000000,,2013-03-07 01:21:00,
2013-03-06 17:31:00,33.0,32.0,-100.00,North,352,4.0,9.0,95,0.00,,,0.13,8.000000,,2013-03-07 01:31:00,
2013-03-06 17:41:00,33.0,32.0,-100.00,North,352,4.0,9.0,95,0.00,,,0.13,8.000000,,2013-03-07 01:41:00,
2013-03-06 18:11:00,32.0,30.0,-100.00,WNW,302,3.0,6.0,94,0.00,,,0.13,0.000000,,2013-03-07 02:11:00,
2013-03-06 18:21:00,32.0,30.0,-100.00,WNW,302,3.0,6.0,94,0.00,,,0.13,0.000000,,2013-03-07 02:21:00,
2013-03-06 18:31:00,32.0,30.0,-100.00,WNW,302,3.0,6.0,94,0.00,,,0.13,0.000000,,2013-03-07 02:31:00,
2013-03-06 18:41:00,32.0,30.0,-100.00,WNW,302,3.0,6.0,94,0.00,,,0.13,0.000000,,2013-03-07 02:41:00,
2013-03-06 19:11:00,33.0,31.0,-100.00,West,270,0.0,5.0,93,0.00,,,0.13,0.000000,,2013-03-07 03:11:00,
2013-03-06 19:21:00,33.0,31.0,-100.00,West,270,0.0,5.0,93,0.00,,,0.13,0.000000,,2013-03-07 03:21:00,
2013-03-06 19:31:00,33.0,31.0,-100.00,West,270,0.0,5.0,93,0.00,,,0.13,0.000000,,2013-03-07 03:31:00,
2013-03-06 19:41:00,33.0,31.0,-100.00,West,270,0.0,5.0,93,0.00,,,0.13,0.000000,,2013-03-07 03:41:00,
2013-03-06 20:11:00,33.0,31.0,-100.00,WSW,245,0.0,3.0,92,0.00,,,0.13,0.000000,,2013-03-07 04:11:00,
2013-03-06 20:21:00,33.0,31.0,-100.00,WSW,245,0.0,3.0,92,0.00,,,0.13,0.000000,,2013-03-07 04:21:00,
2013-03-06 20:31:00,33.0,31.0,-100.00,WSW,245,0.0,3.0,92,0.00,,,0.13,0.000000,,2013-03-07 04:31:00,
2013-03-06 20:41:00,33.0,31.0,-100.00,WSW,245,0.0,3.0,92,0.00,,,0.13,0.000000,,2013-03-07 04:41:00,
2013-03-06 21:12:00,33.0,31.0,-100.00,SW,215,3.0,7.0,91,0.00,,,0.13,0.000000,,2013-03-07 05:12:00,
2013-03-06 21:22:00,33.0,31.0,-100.00,SW,215,3.0,7.0,91,0.00,,,0.13,0.000000,,2013-03-07 05:22:00,
2013-03-06 21:31:00,33.0,31.0,-100.00,SW,215,3.0,7.0,91,0.00,,,0.13,0.000000,,2013-03-07 05:31:00,
2013-03-06 21:41:00,33.0,31.0,-100.00,SW,215,3.0,7.0,91,0.00,,,0.13,0.000000,,2013-03-07 05:41:00,
2013-03-06 22:11:00,33.0,31.0,-100.00,South,176,0.0,5.0,91,0.00,,,0.13,0.000000,,2013-03-07 06:11:00,
2013-03-06 22:21:00,33.0,31.0,-100.00,South,176,0.0,5.0,91,0.00,,,0.13,0.000000,,2013-03-07 06:21:00,
2013-03-06 22:31:00,33.0,31.0,-100.00,South,176,0.0,5.0,91,0.00,,,0.13,0.000000,,2013-03-07 06:31:00,
2013-03-06 22:41:00,33.0,31.0,-100.00,South,176,0.0,5.0,91,0.00,,,0.13,0.000000,,2013-03-07 06:41:00,
2013-03-06 23:11:00,33.0,31.0,-100.00,South,190,0.0,4.0,91,0.00,,,0.13,0.000000,,2013-03-07 07:11:00,
2013-03-06 23:21:00,33.0,31.0,-100.00,South,190,0.0,4.0,91,0.00,,,0.13,0.000000,,2013-03-07 07:21:00,
2013-03-06 23:31:00,33.0,31.0,-100.00,South,190,0.0,4.0,91,0.00,,,0.13,0.000000,,2013-03-07 07:31:00,
2013-03-06 23:41:00,33.0,31.0,-100.00,South,190,0.0,4.0,91,0.00,,,0.13,0.000000,,2013-03-07 07:41:00,